COSMOS 1275 DEB, 42184

Orbit data source: Space-Track

COSMOS 1275 DEB, 42184 is space debris in LEO originally from a launch on Thu, 04 Jun 1981 UTC launched from the Plesetsk Missile And Space Complex (PKMTR). Debris objects in space refer to the collection of defunct objects orbiting the Earth. Examples of debris include non-operational satellites, rocket bodies, and fragments generated from explosions, collisions, or faulty payload assembly.

Loading next visibility...
Identifier
42184, 1981-053SY
Orbit
LEO
Last TLE update
3 days ago
Origin
Manufacturer
Unknown
Mission
Spacecraft
Bus & Motor
Unknown
Mass
Unknown
Launch date (UTC)
1981-06-04 (44 years ago)
Launch vehicle
Unknown
Launch site
Plesetsk Missile And Space Complex (PKMTR)
Object type
Payload
Rocket body
Debris
Shape & HBR
Unknown
Radar Cross Section
Small (<0.1 m²)

Expand to show TLE details & history

TLE from 3 days ago
0 COSMOS 1275 DEB
1 42184U 81053SY  25126.06181670  .00000342  00000-0  41001-3 0  9999
2 42184  83.0228 239.7417 0097400 134.3180  44.3345 13.62176498673946
Epoch: 2025-05-06T01:29Z
Definitive object data (Epoch: 2025-05-06T01:29:00.962Z)
Latitude
0.44482°
Longitude
173.26712°
Altitude
979.361 km
Speed
7.387 km/s
True Right ascension
03h 58m 45s
True Declination
0° 26' 32"
Sunlit
Object was in daylight at TLE epoch
Visualization TLE readout
Latitude
-37.60886°
Longitude
-14.34502°
Altitude
1,111.09 km
Speed
7.262 km/s
Apparent Right ascension
18h 54m 02s
Apparent Declination
-76° 02' 14"
Sunlit
Object is in full shadow
Visualization observer readout
Local Sidereal Time
14:08:16
Azimuth
163.921° S
Elevation
-34.319°
Doppler factor
1
Orbital elements
Apogee altitude
1,097.062 km
Perigee altitude
952.85 km
Semi-major axis
7,403.093 km
Eccentricity
0.00974
Inclination
83.0228°
RAAN
239.7417°
Arg. of periapsis
134.318°
True anomaly
45.12132°
Mean anomaly
44.3345°
Eccentric anomaly
44.72723°
Mean motion
3.4074 °/min
BSTAR
0.00041001
Orbital period
105.65 mins
Loading maneuver chart data...
Loading SW <> Apogee altitude chart data...
Loading historical data...
Loading historical data...
Loading historical data...
Loading historical data...
Loading historical data...
Loading historical data...
Loading historical data...

COSMOS 1275 DEB Visibility forecast

Observer location: undefined°, undefined°

Span
Click to sort rows by Start time (UTC) header in descending order
Start Az.
Max El. time (UTC)
Max El. Az.
Max El.
End time (UTC)
End Az.
5 mins2025-05-09 06:20:31.253Z102.268° ESE2025-05-09 06:22:31.253Z83.144° E13.282°2025-05-09 06:25:31.253Z54.207° ENE
11 mins2025-05-09 08:03:31.253Z188.782° SSW2025-05-09 08:08:31.253Z290.674° WNW44.82°2025-05-09 08:14:31.253Z5.458° NNE
10 mins2025-05-09 19:07:31.253Z354.394° N2025-05-09 19:11:31.253Z12.049° NNE44.628°2025-05-09 19:17:31.253Z173.449° S
|